Location: Dillon
(41.1766°N, 107.0923°W)
Time: 21:48:49
(UTC+00:00)

EO-88 - Visible Passes

Search period start: 27 June 2022 00:00
Search period end: 07 July 2022 00:00
Orbit: 458 x 464 km, 97.3° (Epoch: 27 June)

Date Brightness Start Highest point End Pass type
(mag) Time Alt. Az. Time Alt. Az. Time Alt. Az.
27 Jun ? 03:43:25 11° ESE 03:45:32 18° ENE 03:47:58 10° NNE visible
27 Jun ? 05:17:18 21° SW 05:18:21 25° W 05:21:16 10° NW visible
28 Jun ? 04:45:26 36° S 04:46:43 68° W 04:50:11 10° NNW visible
29 Jun ? 04:13:33 24° SE 04:15:11 41° ENE 04:18:30 10° N visible
29 Jun ? 05:47:37 10° WSW 05:48:23 11° W 05:49:10 10° WNW visible
30 Jun ? 03:41:39 11° ESE 03:43:47 17° ENE 03:46:07 10° NNE visible
30 Jun ? 05:15:32 22° SW 05:16:34 26° W 05:19:33 10° NW visible
01 Jul ? 04:43:36 36° S 04:44:52 73° W 04:48:21 10° NNW visible
02 Jul ? 04:11:39 23° SE 04:13:16 39° ENE 04:16:33 10° N visible
02 Jul ? 05:45:31 10° WSW 05:46:27 11° W 05:47:33 10° WNW visible
03 Jul ? 03:39:41 10° ESE 03:41:48 16° ENE 03:44:02 10° NNE visible
03 Jul ? 05:13:33 24° SW 05:14:33 28° W 05:17:35 10° NW visible
04 Jul ? 04:41:33 37° S 04:42:47 78° WSW 04:46:17 10° NNW visible
05 Jul ? 04:09:32 23° SE 04:11:08 36° ENE 04:14:21 10° N visible
05 Jul ? 05:43:24 11° WSW 05:44:16 12° W 05:45:39 10° WNW visible
06 Jul ? 03:37:31 10° ESE 03:39:36 15° ENE 03:41:42 10° NNE visible
06 Jul ? 05:11:21 25° SW 05:12:19 29° W 05:15:24 10° NW visible
